FW9691 Weather Reports


time (UTC)temp
C
wind
direction
speed
KPH
gust
KPH
rain 1hr
cm
rain 24hr
cm
rain mn
cm
humidity
%
barometer
mb
20260506091520 21 252 17.7 27.4 0.00 0.00 0.00 30 1004.3
20260506090014 21 254 20.9 25.7 0.00 0.00 0.00 31 1004.1
20260506084518 21 256 19.3 25.7 0.00 0.00 0.00 32 1004.0
20260506083010 20 261 14.5 19.3 0.00 0.00 0.00 42 1004.1
20260506081512 20 220 9.7 14.5 0.00 0.00 0.00 45 1004.0
20260506073008 20 120 6.4 9.7 0.00 0.00 0.00 44 1003.8
20260506071515 20 101 6.4 9.7 0.00 0.00 0.00 45 1003.7
20260506061503 20 87 4.8 8.0 0.00 0.00 0.00 46 1003.7
20260506044555 21 74 4.8 6.4 0.00 0.00 0.00 41 1003.0
20260506043049 22 74 0.0 3.2 0.00 0.00 0.00 39 1003.0
20260506041502 22 74 1.6 6.4 0.00 0.00 0.00 40 1002.9
20260506040002 21 74 0.0 6.4 0.00 0.00 0.00 40 1002.6
20260506034501 21 52 4.8 6.4 0.00 0.00 0.00 41 1002.5
20260506033002 22 24 6.4 9.7 0.00 0.00 0.00 39 1002.1
20260506031547 22 24 6.4 12.9 0.00 0.00 0.00 38 1002.1
20260506030044 22 51 4.8 8.0 0.00 0.00 0.00 39 1002.1
20260506024543 21 38 4.8 12.9 0.00 0.00 0.00 39 1001.9
20260506023043 23 345 11.3 14.5 0.00 0.00 0.00 35 1001.8
20260506021544 24 355 8.0 12.9 0.00 0.00 0.00 31 1001.7
20260506020041 25 298 8.0 12.9 0.00 0.00 0.00 29 1001.6
20260506014553 25 297 9.7 17.7 0.00 0.00 0.00 29 1001.3
20260506013049 26 283 16.1 24.1 0.00 0.00 0.00 28 1001.3
20260506011547 26 287 14.5 20.9 0.00 0.00 0.00 28 1001.1
20260506010048 26 271 14.5 20.9 0.00 0.00 0.00 27 1001.1
20260506004543 27 266 14.5 20.9 0.00 0.00 0.00 26 1001.0
20260506003040 27 259 20.9 29.0 0.00 0.00 0.00 25 1001.1
20260506001557 27 271 19.3 27.4 0.00 0.00 0.00 26 1001.0
20260506000045 27 251 20.9 30.6 0.00 0.00 0.00 26 1001.1
20260505234547 27 244 19.3 40.2 0.00 0.00 0.00 26 1001.2
20260505233046 27 221 19.3 32.2 0.00 0.00 0.00 27 1001.4
20260505231547 26 234 30.6 41.8 0.00 0.00 0.00 27 1001.4
20260505230038 26 239 29.0 43.5 0.00 0.00 0.00 28 1001.3
20260505224541 26 237 30.6 41.8 0.00 0.00 0.00 29 1001.7
20260505223042 25 223 19.3 33.8 0.00 0.00 0.00 31 1002.0
20260505221537 25 252 24.1 33.8 0.00 0.00 0.00 31 1002.0
20260505220039 25 240 24.1 30.6 0.00 0.00 0.00 32 1002.3
20260505214557 24 246 25.7 32.2 0.00 0.00 0.00 32 1002.4
20260505213053 25 254 25.7 37.0 0.00 0.00 0.00 31 1002.6
20260505211541 25 252 33.8 46.7 0.00 0.00 0.00 30 1002.7
20260505210040 25 260 41.8 54.7 0.00 0.00 0.00 28 1002.9
20260505204535 25 245 30.6 45.1 0.00 0.00 0.00 28 1002.8
20260505203037 25 249 30.6 38.6 0.00 0.00 0.00 29 1002.8
20260505201544 25 261 33.8 45.1 0.00 0.00 0.00 27 1003.0
20260505200031 25 245 29.0 41.8 0.00 0.00 0.00 28 1002.9
20260505194537 25 237 30.6 40.2 0.00 0.00 0.00 28 1003.0
20260505193043 25 232 29.0 46.7 0.00 0.00 0.00 28 1003.0
20260505191534 25 242 29.0 40.2 0.00 0.00 0.00 29 1002.8
20260505190036 25 230 14.5 32.2 0.00 0.00 0.00 30 1002.9
20260505184527 25 238 24.1 32.2 0.00 0.00 0.00 29 1003.3
20260505183042 25 217 12.9 29.0 0.00 0.00 0.00 28 1003.3
20260505181524 25 223 20.9 30.6 0.00 0.00 0.00 28 1003.6
20260505180032 25 258 16.1 22.5 0.00 0.00 0.00 27 1003.6
20260505174540 25 275 12.9 20.9 0.00 0.00 0.00 28 1003.7
20260505173040 25 294 16.1 25.7 0.00 0.00 0.00 28 1003.5
20260505171540 25 322 17.7 27.4 0.00 0.00 0.00 28 1003.7
20260505170034 24 303 19.3 33.8 0.00 0.00 0.00 29 1003.6
20260505164531 24 315 20.9 29.0 0.00 0.00 0.00 29 1003.7
20260505163022 24 222 8.0 16.1 0.00 0.00 0.00 31 1003.7
20260505161517 23 221 6.4 11.3 0.00 0.00 0.00 32 1003.7
20260505153025 23 221 8.0 17.7 0.00 0.00 0.00 30 1003.6
20260505151514 23 219 11.3 16.1 0.00 0.00 0.00 30 1003.6
20260505124604 18 218 3.2 6.4 0.00 0.00 0.00 45 1002.1
20260505123110 18 218 6.4 8.0 0.00 0.00 0.00 45 1002.1
20260505121554 18 218 1.6 6.4 0.00 0.00 0.00 49 1001.8
20260505120055 19 218 3.2 6.4 0.00 0.00 0.00 45 1001.7
20260505114602 19 218 0.0 4.8 0.00 0.00 0.00 41 1001.6
20260505113155 20 218 3.2 6.4 0.00 0.00 0.00 38 1001.5
20260505111559 20 218 4.8 8.0 0.00 0.00 0.00 38 1001.5
20260505101553 18 218 6.4 11.3 0.00 0.00 0.00 46 1001.4
20260505100057 18 218 0.0 6.4 0.00 0.00 0.00 46 1001.4
20260505094547 20 218 6.4 8.0 0.00 0.00 0.00 40 1001.3
20260505093046 20 218 8.0 11.3 0.00 0.00 0.00 38 1001.1